Weather History for Corsicana, TX

Change the Weather History Date:

Thursday, December 13, 2012

  Actual Average (KACT) Record (KACT)
Temperature  
Mean Temperature 48 °F 48 °F  
Max Temperature 64 °F 59 °F 80 °F (1948)
Min Temperature 32 °F 38 °F 18 °F (1989)
Degree Days  
Heating Degree Days 17 17  
Month to date heating degree days 200  
Since 1 July heating degree days 528  
Cooling Degree Days 0 0  
Month to date cooling degree days 0  
Year to date cooling degree days 2792  
Moisture  
Dew Point 23 °F    
Average Humidity 41    
Maximum Humidity 70    
Minimum Humidity 19    
Precipitation  
Precipitation 0.00 in 0.09 in 2.65 in (1923)
Month to date precipitation 1.15  
Year to date precipitation 33.09  
Snow  
Snow 0.00 in 0.00 in 1.00 in (1963)
Month to date snowfall 0.0  
Since 1 July snowfall 0.1  
Snow Depth -    
Sea Level Pressure  
Sea Level Pressure 30.28 in    
Wind  
Wind Speed 9 mph (SSE)    
Max Wind Speed 13 mph    
Max Gust Speed 18 mph    
Visibility 10 miles    
Events      
T = Trace of Precipitation, MM = Missing Value Source: NWS Daily Summary

Daily Weather History Graph

Daily Weather History Graph

Search for Another Location

Airport:

Trip Planner

Search our weather history database for the weather conditions in past years. The results will help you decide how hot, cold, wet, or windy it might be!

Date:

Astronomy

Dec. 13, 2012 Rise Set
Actual Time 7:17 AM CST 5:22 PM CST
Civil Twilight 6:50 AM CST 5:49 PM CST
Nautical Twilight 6:20 AM CST 6:19 PM CST
Astronomical Twilight 5:50 AM CST 6:49 PM CST
Moon 7:28 AM CST (12/13) 6:04 PM CST (12/13)
Length of Visible Light 10h 58m
Length of Day
10h 04m
New Moon, 0% of the Moon is Illuminated
Dec 13
New Moon
Dec 19
First Quarter
Dec 28
Full
Jan 4
Last Quarter
Jan 11
New

Hourly Weather History & Observations

Time (CST) Temp. Windchill Dew Point Humidity Pressure Visibility Wind Dir Wind Speed Gust Speed Precip Events Conditions
12:53 AM 43.0 °F 38.2 °F 19.9 °F 40% 30.30 in 10.0 mi SE 8.1 mph - N/A   Clear
1:53 AM 43.0 °F 37.7 °F 19.0 °F 38% 30.29 in 10.0 mi SE 9.2 mph - N/A   Clear
2:53 AM 37.0 °F 31.0 °F 19.9 °F 50% 30.30 in 10.0 mi SSE 8.1 mph - N/A   Clear
3:53 AM 37.9 °F 33.5 °F 21.0 °F 51% 30.30 in 10.0 mi SE 5.8 mph - N/A   Clear
4:53 AM 35.1 °F 29.3 °F 21.9 °F 59% 30.30 in 10.0 mi SSE 6.9 mph - N/A   Clear
5:53 AM 34.0 °F 28.0 °F 23.0 °F 64% 30.31 in 10.0 mi SSE 6.9 mph - N/A   Clear
6:53 AM 32.0 °F 25.6 °F 23.0 °F 69% 30.32 in 10.0 mi SSE 6.9 mph - N/A   Clear
7:53 AM 34.0 °F 28.8 °F 25.0 °F 70% 30.33 in 10.0 mi SSE 5.8 mph - N/A   Clear
8:53 AM 42.1 °F 36.1 °F 26.1 °F 53% 30.35 in 10.0 mi South 10.4 mph - N/A   Clear
9:53 AM 48.9 °F - 25.0 °F 39% 30.35 in 10.0 mi SSE 10.4 mph - N/A   Clear
10:53 AM 54.0 °F - 24.1 °F 31% 30.34 in 10.0 mi SSE 11.5 mph - N/A   Clear
11:53 AM 59.0 °F - 23.0 °F 25% 30.31 in 10.0 mi SSE 8.1 mph - N/A   Clear
12:53 PM 62.1 °F - 23.0 °F 22% 30.28 in 10.0 mi SSE 11.5 mph - N/A   Clear
1:53 PM 64.0 °F - 21.9 °F 20% 30.24 in 10.0 mi South 9.2 mph 16.1 mph N/A   Clear
2:53 PM 64.9 °F - 21.9 °F 19% 30.22 in 10.0 mi South 11.5 mph 18.4 mph N/A   Clear
3:53 PM 64.0 °F - 23.0 °F 21% 30.21 in 10.0 mi SSE 12.7 mph - N/A   Clear
6:53 PM 51.1 °F - 26.1 °F 38% 30.22 in 10.0 mi ESE 9.2 mph - N/A   Clear
7:53 PM 53.1 °F - 26.1 °F 35% 30.23 in 10.0 mi SE 8.1 mph - N/A   Clear
8:53 PM 52.0 °F - 27.0 °F 38% 30.21 in 10.0 mi SE 10.4 mph - N/A   Clear
9:53 PM 50.0 °F - 27.0 °F 41% 30.22 in 10.0 mi SSE 9.2 mph - N/A   Clear
10:53 PM 48.9 °F - 26.1 °F 41% 30.23 in 8.0 mi SSE 8.1 mph - N/A   Clear